Location: Chenereilles
(45.4866°N, 4.0790°E)
Time: 21:31:22
(UTC+00:00)

Envisat - Pass Details

Date: 12 November 2019
Orbit: 764 x 766 km, 98.1° (Epoch: 06 December)

Event Time Altitude Azimuth Distance (km) Brightness Sun altitude
Rises 18:15:00 0° 184° (S) 3,219 6.3 -20.7°
Reaches altitude 10° 18:17:24 10° 191° (SSW) 2,297 5.6 -21.1°
Maximum altitude 18:22:11 42° 262° (W) 1,086 4.2 -22.0°
Drops below altitude 10° 18:27:01 10° 333° (NNW) 2,313 5.8 -22.8°
Sets 18:29:28 0° 341° (NNW) 3,244 6.5 -23.3°
